DateTimeUTC,F1_A11,F1_S11,BsB_S11,BsG_S11,BsR_S11,BbsB_S11,BbsG_S11,BbsR_S11,BaB_A11,BaG_A11,BaR_A11,Tu_S11,T_S11,Uu_S11,U_S11,P_S11,T1_A11
2021-02-16T20:00:00Z,00000200,21000000,,,,,,,0000.36,0000.34,0000.05,16.8,23.4,,00.0,0628.8,31.0
2021-02-16T20:01:00Z,00000200,21000000,,,,,,,-000.16,-000.14,-000.02,16.7,23.4,,00.0,0628.8,31.0
2021-02-16T20:02:00Z,00000200,21000000,,,,,,,-000.11,0000.12,-000.11,16.7,23.4,,00.0,0628.8,31.0
2021-02-16T20:03:00Z,00000200,61000000,,,,,,,-000.10,-000.17,-000.03,16.7,23.4,,00.0,0628.8,31.0
2021-02-16T20:04:00Z,00000200,41000000,0000.09,-000.14,-000.20,0000.02,0000.03,0000.14,-000.10,-000.05,-000.17,16.8,23.2,,00.0,0629.8,31.0
2021-02-16T20:05:00Z,00000200,01000000,0000.34,0000.28,-000.20,0000.16,0000.11,-000.10,0000.31,-000.04,0000.07,16.9,23.1,,00.0,0629.9,31.0
2021-02-16T20:06:00Z,00000200,01000000,-000.28,0000.03,-000.12,0000.14,-000.08,-000.00,0000.01,0000.45,0000.12,16.9,23.2,,00.0,0629.9,31.0
2021-02-16T20:07:00Z,00000200,01000000,0000.24,-000.00,-000.11,0000.10,-000.17,0000.22,0000.02,-000.29,0000.07,17.0,23.2,,00.0,0629.9,31.0
2021-02-16T20:08:00Z,00000200,01000000,0000.64,0000.30,-000.28,-000.13,0000.02,-000.32,-000.14,0000.13,0000.12,17.1,23.2,,00.0,0629.9,31.0
2021-02-16T20:09:00Z,00000200,01000000,0000.05,0000.06,-000.11,0000.03,0000.11,0000.14,0000.03,0000.15,0000.12,17.2,23.3,,00.0,0630.0,31.1
2021-02-16T20:10:00Z,00000200,01000000,0000.06,-000.14,0000.10,0000.46,0000.12,0000.27,-000.27,-000.41,-000.17,17.3,23.3,,00.0,0630.0,31.0
2021-02-16T20:11:00Z,00000200,01000000,-000.08,-000.26,-000.05,0000.37,0000.03,0000.05,0000.29,0000.35,-000.07,17.4,23.4,,00.0,0630.0,31.0
2021-02-16T20:12:00Z,00000200,01000000,0000.19,-000.10,-000.29,0000.06,-000.07,0000.25,-000.09,-000.27,-000.24,17.4,23.4,,00.0,0630.0,31.0
2021-02-16T20:13:00Z,00000200,01000000,-000.06,0000.16,-000.16,0000.85,0000.14,0000.08,-000.28,-000.22,-000.51,17.3,23.3,,00.0,0630.0,31.0
2021-02-16T20:14:00Z,00000200,01000000,0000.26,-000.31,0000.09,-000.25,-000.04,-000.23,0000.05,0000.10,0000.44,17.3,23.3,,00.0,0630.0,31.0
2021-02-16T20:15:00Z,00000200,01000000,-000.34,-000.10,-000.26,0000.17,0000.01,-000.14,0000.02,-000.04,0000.00,17.3,23.3,,00.0,0630.0,31.0
2021-02-16T20:16:00Z,00000200,01000000,-000.29,-000.03,-000.17,-000.27,0000.19,-000.41,-000.08,-000.35,0000.09,17.2,23.3,,00.0,0630.0,31.0
2021-02-16T20:17:00Z,00000200,01000000,0000.12,-000.15,-000.43,0000.41,-000.01,0000.06,-000.25,0000.15,-000.13,17.2,23.3,,00.0,0630.1,31.0
2021-02-16T20:18:00Z,00000200,01000000,-000.18,-000.10,-000.05,-000.06,0000.02,0000.29,0000.09,-000.08,0000.20,17.2,23.3,,00.0,0630.1,31.0
2021-02-16T20:19:00Z,00000200,01000000,-000.59,-000.00,-000.22,0000.15,0000.19,-000.17,0000.13,0000.17,-000.39,17.1,23.3,,00.0,0630.1,31.0
2021-02-16T20:20:00Z,00000200,01000000,0000.55,-000.07,0000.05,0000.26,0000.05,0000.25,0000.11,-000.00,0000.54,17.2,23.2,,00.0,0630.1,31.0
2021-02-16T20:21:00Z,00000200,01000000,0000.12,0000.04,-000.13,0000.15,-000.18,-000.08,0000.04,-000.03,-000.09,17.2,23.3,,00.0,0630.1,31.0
2021-02-16T20:22:00Z,00000200,01000000,0000.10,0000.12,0000.02,0000.06,0000.10,0000.05,0000.12,0000.26,-000.11,17.3,23.3,,00.0,0630.1,31.0
2021-02-16T20:23:00Z,00000200,01000000,0000.58,-000.10,0000.14,0000.07,-000.18,-000.00,-000.12,0000.01,-000.00,17.3,23.3,,00.0,0630.0,31.0
2021-02-16T20:24:00Z,00000200,01000000,-000.19,-000.35,0000.08,-000.16,-000.13,-000.17,0000.09,-000.14,-000.18,17.4,23.4,,00.0,0630.0,31.0
2021-02-16T20:25:00Z,00000200,01000000,0000.24,-000.22,-000.11,0000.05,0000.04,0000.32,-000.18,-000.14,0000.16,17.4,23.4,,00.0,0630.0,31.0
2021-02-16T20:26:00Z,00000200,01000000,0000.29,-000.09,-000.07,0000.10,0000.04,-000.06,-000.06,-000.01,-000.17,17.3,23.4,,00.0,0630.1,31.0
2021-02-16T20:27:00Z,00000200,01000000,0000.07,-000.03,-000.10,0000.57,0000.07,-000.00,0000.03,0000.12,0000.28,17.3,23.3,,00.0,0630.0,31.0
2021-02-16T20:28:00Z,00000200,01000000,-000.26,-000.27,-000.17,0000.10,0000.18,0000.02,-000.13,-000.06,-000.35,17.3,23.3,,00.0,0630.1,31.0
2021-02-16T20:29:00Z,00000200,01000000,-000.21,-000.34,-000.38,0000.13,-000.08,-000.38,-000.07,-000.17,0000.18,17.2,23.3,,00.0,0630.1,31.0
2021-02-16T20:30:00Z,00000200,01000000,0000.36,0000.05,-000.05,-000.07,-000.22,0000.03,0000.10,0000.13,-000.27,17.2,23.3,,00.0,0630.1,31.0
2021-02-16T20:31:00Z,00000200,01000000,0000.02,0000.19,-000.01,-000.38,0000.10,-000.00,-000.22,0000.10,0000.05,17.2,23.3,,00.0,0630.1,31.0
2021-02-16T20:32:00Z,00000200,01000000,-000.56,0000.10,-000.03,0000.41,-000.03,0000.12,0000.03,-000.32,-000.34,17.1,23.3,,00.0,0630.2,31.0
2021-02-16T20:33:00Z,00000200,01000000,0000.94,0000.02,-000.13,-000.41,-000.10,0000.13,-000.29,-000.05,0000.48,17.1,23.3,,00.0,0630.2,31.0
2021-02-16T20:34:00Z,00000200,01000000,0000.46,-000.42,-000.49,0000.17,0000.01,0000.08,0000.25,0000.03,-000.31,17.1,23.2,,00.0,0630.2,31.0
2021-02-16T20:35:00Z,00000200,01000000,-000.04,-000.23,-000.09,0000.35,-000.12,-000.18,0000.32,0000.16,0000.35,17.1,23.2,,00.0,0630.2,31.0
2021-02-16T20:36:00Z,00000200,01000000,0000.36,-000.07,-000.32,-000.23,-000.04,0000.01,0000.10,-000.07,-000.31,17.2,23.2,,00.0,0630.2,31.0
2021-02-16T20:37:00Z,00000200,01000000,-000.12,0000.01,-000.23,0000.31,-000.12,-000.16,0000.03,0000.29,0000.69,17.2,23.2,,00.0,0630.2,31.0
2021-02-16T20:38:00Z,00000200,01000000,0000.15,-000.15,-000.14,0000.52,0000.08,-000.07,-000.14,0000.06,-000.20,17.3,23.3,,00.0,0630.2,31.0
2021-02-16T20:39:00Z,00000200,01000000,-000.38,-000.02,0000.12,0000.23,0000.22,0000.04,-000.17,-000.27,0000.00,17.4,23.4,,00.0,0630.2,31.1
2021-02-16T20:40:00Z,00000200,01000000,-000.37,0000.05,-000.31,0000.14,-000.04,-000.25,0000.08,0000.27,0000.03,17.5,23.4,,00.0,0630.2,31.1
2021-02-16T20:41:00Z,00000200,01000000,-000.07,-000.07,-000.30,0000.10,-000.10,0000.03,0000.03,-000.11,0000.14,17.5,23.4,,00.0,0630.2,31.0
2021-02-16T20:42:00Z,00000200,01000000,0000.78,-000.17,0000.03,0000.11,0000.10,0000.22,-000.30,-000.26,-000.41,17.6,23.5,,00.0,0630.2,31.0
2021-02-16T20:43:00Z,00000200,01000000,0000.29,-000.17,-000.39,0000.02,0000.10,-000.32,0000.27,0000.17,0000.25,17.5,23.4,,00.0,0630.2,31.0
2021-02-16T20:44:00Z,00000200,01000000,0000.22,-000.15,-000.06,-000.08,0000.01,-000.01,-000.23,0000.07,-000.35,17.5,23.4,,00.0,0630.3,31.0
2021-02-16T20:45:00Z,00000200,01000000,-000.34,0000.08,-000.01,-000.39,0000.29,0000.09,-000.01,-000.12,0000.30,17.4,23.4,,00.0,0630.3,31.0
2021-02-16T20:46:00Z,00000200,01000000,0000.06,-000.10,0000.10,-000.10,0000.22,0000.03,0000.32,0000.09,-000.05,17.4,23.4,,00.0,0630.3,31.0
2021-02-16T20:47:00Z,00000200,01000000,0000.33,-000.15,-000.08,-000.05,0000.02,0000.05,-000.24,0000.30,-000.19,17.4,23.4,,00.0,0630.3,31.0
2021-02-16T20:48:00Z,00000200,01000000,0000.01,-000.11,-000.28,-000.31,0000.08,0000.09,-000.07,-000.13,0000.18,17.3,23.4,,00.0,0630.3,31.0
2021-02-16T20:49:00Z,00000200,01000000,0000.50,0000.45,-000.09,-000.07,0000.11,-000.18,0000.25,-000.28,-000.20,17.3,23.4,,00.0,0630.3,31.0
2021-02-16T20:50:00Z,00000200,01000000,0000.16,0000.10,-000.25,0000.41,0000.05,-000.07,0000.01,-000.11,0000.15,17.2,23.4,,00.0,0630.4,31.0
2021-02-16T20:51:00Z,00000200,01000000,0000.41,-000.11,0000.00,0000.11,-000.26,0000.27,-000.29,0000.03,0000.02,17.2,23.3,,00.0,0630.4,31.0
2021-02-16T20:52:00Z,00000200,01000000,0000.04,0000.12,0000.02,-000.29,0000.15,0000.20,0000.20,0000.03,-000.15,17.2,23.3,,00.0,0630.4,31.0
2021-02-16T20:53:00Z,00000200,01000000,0000.07,-000.03,-000.01,-000.08,0000.15,-000.02,0000.00,-000.13,0000.09,17.2,23.3,,00.0,0630.4,31.0
2021-02-16T20:54:00Z,00000200,01000000,-000.33,0000.14,-000.12,-000.06,-000.15,-000.25,-000.11,0000.03,0000.15,17.1,23.3,,00.0,0630.4,31.0
2021-02-16T20:55:00Z,00000200,01000000,0000.08,0000.12,-000.20,-000.12,0000.01,-000.13,0000.04,-000.21,-000.19,17.1,23.3,,00.0,0630.4,31.0
2021-02-16T20:56:00Z,00000200,01000000,0000.85,-000.09,-000.18,-000.13,-000.12,-000.03,0000.22,0000.60,0000.04,17.1,23.3,,00.0,0630.4,31.0
2021-02-16T20:57:00Z,00000200,41000000,,,,,,,0000.11,-000.18,0000.36,17.1,23.3,,00.0,0630.4,31.0
2021-02-16T20:58:00Z,00000200,61000000,,,,,,,0000.22,0000.25,-000.23,16.8,23.4,,00.0,0629.5,31.0
2021-02-16T20:59:00Z,00000200,21000000,,,,,,,-000.22,-000.16,-000.00,16.7,23.5,,00.0,0629.4,31.0
